[[{"header":{"parameterUnit":"m.s-1","parameterCategory":1,"la1":30.2992,"la2":30.254,"lo1":-89.0895,"lo2":-89.0443,"dy":0.0025,"dx":0.0025,"nx":19,"ny":19,"refTime":"2026-04-20T09:00:00:Z","depth":0,"parameterNumber":2,"parameterNumberName":"U-component_of_WINDS"},"data":[0,0,0,-1.9608,-1.9611,-1.9751,-1.9751,-1.9945,-1.9947,0,0,0,0,0,0,0,0,0,0,0,-1.9576,-1.9578,-1.9607,-1.9611,-1.9751,-1.9751,-1.9945,-1.9947,0,0,0,0,0,0,0,0,0,0,0,-1.9576,-1.9578,-1.958,-1.9612,-1.975,-1.9751,-1.9945,-1.9834,0,0,0,0,0,0,0,0,0,0,-1.9695,-1.9677,-1.9577,-1.958,-1.9613,-1.975,-1.9751,-1.9828,-1.9841,-1.9889,0,-1.9935,0,-1.9944,-1.9961,-1.9962,0,0,0,-1.9604,-1.9666,-1.9695,-1.958,-1.9614,-1.975,-1.9686,-1.9835,-1.9849,-1.9906,-1.9938,-1.9945,-1.9948,-1.9963,-1.9964,-2.0269,-2.0271,0,0,-1.9596,-1.9607,-1.9685,-1.9704,-1.9684,-1.9681,-1.969,-1.9843,-1.9879,-1.9939,-1.9949,-1.9951,-1.9964,-1.9966,-2.0268,-2.027,0,0,0,-1.9579,-1.9602,-1.9626,-1.9697,-1.9721,-1.9685,-1.9696,-1.9872,-1.9879,-1.9951,-1.9953,-1.9965,-1.9968,-2.0266,-2.0268,-2.0369,0,0,0,-1.9574,-1.9592,-1.9623,-1.9632,-1.9718,-1.9798,-1.9721,-1.9868,-1.9885,-1.9952,-1.9965,-1.997,-2.0264,-2.0267,-2.0362,-2.0415,0,0,0,-1.9564,-1.9591,-1.9614,-1.9632,-1.9692,-1.9796,-1.9811,-1.9872,-1.9887,-1.9962,-1.997,-2.0262,-2.0267,-2.0356,-2.0405,-2.05,0,0,0,-1.9557,-1.9702,-1.9616,-1.9779,-1.9691,-1.9856,-1.981,-1.9932,-2.0008,-1.9966,-2.0264,-2.0268,-2.0354,-2.0399,-2.0493,-2.0583,-2.0621,0,0,-1.9746,-1.9725,-1.9819,-1.9747,-1.993,-1.9834,-2.0031,-2.009,-2.0086,-2.0208,-2.0216,-2.0364,-2.0404,-2.0498,-2.0827,-2.0857,0,0,0,-1.9883,-1.9952,-1.9998,-2.0071,-2.0119,-2.0164,-2.0191,-2.0213,-2.0316,-2.0152,-2.0422,-2.0446,-2.0501,-2.0544,-2.0569,-2.0616,-2.0288,-2.0287,-2.0287,-2.017,-2.0157,-2.0312,-2.0316,-2.0387,-2.0413,-2.0469,-2.0502,-2.0469,-2.0533,-2.057,-2.0771,-2.0821,-2.084,-2.0889,-2.0614,-2.0615,-2.0615,-2.0615,-2.0448,-2.0543,-2.0493,-2.0627,-2.0612,-2.0723,-2.0752,-2.0725,-2.0826,-2.0742,-2.079,-2.0701,-2.0874,-2.0916,-2.0623,-2.0621,-2.062,-2.062,-2.0619,-2.0636,-2.0679,-2.0702,-2.0805,-2.0886,-2.0883,-2.0983,-2.0965,-2.0949,-2.0996,-2.1033,-2.1032,-2.1029,-2.1014,-2.1015,-2.1016,-2.1016,-2.1017,-2.1017,-2.0823,-2.0846,-2.0932,-2.0994,-2.1038,-2.1093,-2.1118,-2.1161,-2.1203,-2.1182,-2.1182,-2.1143,-2.0893,-2.0831,-2.1028,-2.1026,-2.1025,-2.1024,-2.1023,-2.1115,-2.1045,-2.1179,-2.1223,-2.1293,-2.1375,-2.1349,-2.1436,-2.1468,-2.1518,-2.1467,-2.1284,-2.1262,-2.1241,-2.1191,-2.1469,-2.1469,-2.1469,-2.1469,-2.1275,-2.1261,-2.1394,-2.1465,-2.1532,-2.1522,-2.1673,-2.1693,-2.1703,-2.1721,-2.1678,-2.1608,-2.1587,-2.1577,-2.1549,-2.1502,-2.1853,-2.1853,-2.1853,-2.1454,-2.1445,-2.1579,-2.1587,-2.164,-2.1685,-2.1827,-2.191,-2.1906,-2.1869,-2.1736,-2.172,-2.1607,-2.1571,-2.1534,-2.1491,-2.1404,0,0]},{"header":{"parameterUnit":"m.s-1","parameterCategory":1,"la1":30.2992,"la2":30.254,"lo1":-89.0895,"lo2":-89.0443,"dy":0.0025,"dx":0.0025,"nx":19,"ny":19,"refTime":"2026-04-20T09:00:00:Z","depth":0,"parameterNumber":3,"parameterNumberName":"V-component_of_WINDS"},"data":[0,0,0,-6.4411,-6.4416,-6.464,-6.4641,-6.4942,-6.4945,0,0,0,0,0,0,0,0,0,0,0,-6.4359,-6.4361,-6.4411,-6.4417,-6.464,-6.4641,-6.4941,-6.4945,0,0,0,0,0,0,0,0,0,0,0,-6.4358,-6.4361,-6.4364,-6.4418,-6.464,-6.4641,-6.4941,-6.4766,0,0,0,0,0,0,0,0,0,0,-6.4546,-6.4512,-6.436,-6.4364,-6.4419,-6.464,-6.4641,-6.4757,-6.4777,-6.4849,0,-6.492,0,-6.4938,-6.4966,-6.4967,0,0,0,-6.4406,-6.4495,-6.4544,-6.4364,-6.4421,-6.4639,-6.4536,-6.4768,-6.479,-6.4875,-6.4924,-6.4935,-6.4943,-6.4968,-6.497,-6.5434,-6.5436,0,0,-6.4393,-6.4405,-6.4529,-6.4559,-6.453,-6.4529,-6.4543,-6.4781,-6.4834,-6.4925,-6.4942,-6.4948,-6.4971,-6.4973,-6.5431,-6.5434,0,0,0,-6.4365,-6.4397,-6.4439,-6.4547,-6.4586,-6.4536,-6.4552,-6.4823,-6.4836,-6.4945,-6.4951,-6.4972,-6.4976,-6.5428,-6.5432,-6.558,0,0,0,-6.4357,-6.4381,-6.4434,-6.4444,-6.4583,-6.4709,-6.459,-6.482,-6.4846,-6.495,-6.4973,-6.4979,-6.5425,-6.543,-6.5569,-6.5647,0,0,0,-6.4339,-6.4379,-6.4416,-6.4444,-6.4541,-6.4705,-6.4731,-6.4825,-6.4851,-6.4968,-6.498,-6.5423,-6.5429,-6.556,-6.5631,-6.5773,0,0,0,-6.4323,-6.4542,-6.4419,-6.4665,-6.454,-6.4795,-6.4729,-6.4918,-6.5035,-6.4974,-6.5426,-6.5432,-6.5557,-6.5622,-6.5763,-6.5895,-6.5952,0,0,-6.4606,-6.4576,-6.4721,-6.4617,-6.4898,-6.476,-6.5061,-6.5155,-6.5153,-6.5339,-6.535,-6.5573,-6.563,-6.5771,-6.6261,-6.6306,0,0,0,-6.4814,-6.4918,-6.499,-6.5105,-6.5184,-6.5258,-6.5305,-6.534,-6.5498,-6.5253,-6.5661,-6.5695,-6.5777,-6.5839,-6.5878,-6.5947,-6.5461,-6.5461,-6.546,-6.5232,-6.5221,-6.5458,-6.5474,-6.5585,-6.5632,-6.572,-6.5774,-6.5727,-6.5824,-6.5879,-6.6179,-6.6252,-6.6281,-6.6353,-6.5947,-6.5948,-6.5948,-6.5949,-6.5646,-6.5792,-6.5726,-6.5933,-6.5918,-6.609,-6.6143,-6.6104,-6.626,-6.6136,-6.6207,-6.6073,-6.6331,-6.6393,-6.596,-6.5958,-6.5956,-6.5955,-6.5955,-6.5919,-6.5987,-6.6028,-6.6192,-6.6319,-6.6325,-6.6479,-6.6458,-6.6439,-6.651,-6.6566,-6.6563,-6.6558,-6.6538,-6.6539,-6.654,-6.6541,-6.6542,-6.6542,-6.6187,-6.6228,-6.6363,-6.6466,-6.6537,-6.6627,-6.6675,-6.6743,-6.6812,-6.6785,-6.6785,-6.6728,-6.6359,-6.6266,-6.6559,-6.6556,-6.6554,-6.6552,-6.6551,-6.6612,-6.6513,-6.6721,-6.6793,-6.6911,-6.7039,-6.701,-6.715,-6.7202,-6.7278,-6.7206,-6.6937,-6.6904,-6.6873,-6.6797,-6.7209,-6.7209,-6.7209,-6.7209,-6.6844,-6.6825,-6.7034,-6.7149,-6.7259,-6.7255,-6.7486,-6.7525,-6.7549,-6.758,-6.7517,-6.7414,-6.7384,-6.7369,-6.7327,-6.7256,-6.7775,-6.7776,-6.7776,-6.7104,-6.7096,-6.73,-6.7326,-6.7417,-6.7494,-6.7711,-6.7843,-6.7849,-6.7799,-6.7604,-6.758,-6.7413,-6.7359,-6.7306,-6.7242,-6.711,0,0]}]]